Volver al catálogo

NADEZHDA 1

ActivoComunicacionesPO
NORAD 20103·PAYLOAD·🇷🇺 Russia

Lanzado Jul 4, 1989 desde Plesetsk Cosmodrome

Loading…

Próximos Pases (próximas 24 horas)

TLE

ActualizadoSource: Space-Track

Época: Sep 14, 2026, 08:57 UTC

1 20103U 89050A   26257.37339558  .00000052  00000-0  38484-4 0  9991
2 20103  82.9580 235.5665 0036486 217.3222 311.0492 13.74858076865703

Sigue NADEZHDA 1 en tiempo real con AllMySat

Download on the App Store